Simultaneous Nadir Overpasses (SNOs) Predictions

Prediction of SNOs between GOES-17 and METOP-B Satellite Orbit:

Table of predicted SNOs for the next 14.0 days since TLE Epoch: 9/5/2025
Index Date Time (GOES-17) GOES-17 Lat,Lon METOP-B Lat,Lon Distance(km) Time Diff (sec)
1 09/06/2025 14:45:48 0.07, -89.52 -0.58, -86.52 341.28 80
2 09/08/2025 03:07:31 -0.09, -89.48 -0.45, -91.15 190.22 80
3 09/09/2025 02:44:14 -0.08, -89.48 0.67, -86.18 376.88 80
4 09/10/2025 15:05:47 0.10, -89.53 0.37, -90.76 140.31 80
5 09/11/2025 14:42:30 0.09, -89.53 -0.76, -85.78 426.68 80
6 09/13/2025 03:04:12 -0.11, -89.48 -0.32, -90.40 104.71 80
7 09/14/2025 02:40:55 -0.10, -89.48 0.82, -85.43 462.41 80
8 09/15/2025 15:02:28 0.13, -89.53 0.22, -90.01 54.59 80
9 09/18/2025 03:00:53 -0.14, -89.49 -0.14, -89.66 18.35 80
